Location: Spring Creek
(38.2870°N, 100.2160°W)
Time: 02:53:18
(UTC+00:00)

DELTA 2 R/B (1) - Pass Details

Date: 03 October 2021
Orbit: 790 x 802 km, 39.6° (Epoch: 18 October)

Event Time Altitude Azimuth Distance (km) Brightness Sun altitude
Exits shadow 12:03:56 - 239° (WSW) 2,801 5.9 -7.7°
Reaches altitude 10° 12:05:11 10° 237° (WSW) 2,343 5.5 -7.4°
Maximum altitude 12:10:37 61° 158° (SSE) 892 4.0 -6.3°
Drops below altitude 10° 12:16:05 10° 79° (E) 2,354 7.7 -5.3°
Sets 12:18:35 0° 76° (ENE) 3,286 8.6 -4.8°
